Date String (YYYY-MM-DD hh:mm:ss) UTC,Instrument flags,Ambient pressure (hPa),Sample flow (lpm),Bypass flow (lpm),Sample temperature (°C),Ambient temperature (°C),ASC tube jacket temperature (°C),LED temperature (°C),Box temperature (°C),Sample RH (%),Span deviation,Mass concentration (μg/m³),Mass concentration (μg/m³),Mass concentration (μg/m³)
DateTimeUTC,F1_M11,P_M11,Q1_M11,Q2_M11,T1_M11,T2_M11,T3_M11,T4_M11,T5_M11,U1_M11,ZSPAN_M11,X0_M11,X2_M11,X1_M11
2022-05-08 23:00:00,,0807.4,5.01,0.00,29.6,25.9,00.0,38.7,31.1,16.0,0000.0,0028.24,0009.54,0004.11
2022-05-08 23:01:00,,0807.4,5.00,0.00,29.6,26.4,00.0,38.6,31.1,16.6,0000.0,0029.07,0009.56,0004.11
2022-05-08 23:02:00,,0807.4,4.99,0.00,29.5,26.8,00.0,38.6,31.2,16.1,0000.0,0028.70,0009.60,0004.10
2022-05-08 23:03:00,,0807.5,5.00,0.00,29.6,27.2,00.0,38.6,31.3,16.4,0000.0,0027.15,0009.49,0004.10
2022-05-08 23:04:00,,0807.4,4.99,0.00,29.6,27.6,00.0,38.6,31.3,15.8,0000.0,0027.32,0009.46,0004.10
2022-05-08 23:05:00,,0807.4,5.01,0.00,29.6,27.8,00.0,38.6,31.4,15.7,0000.0,0028.25,0009.45,0004.11
2022-05-08 23:06:00,,0807.4,5.00,0.00,29.6,28.0,00.0,38.5,31.4,15.9,0000.0,0028.81,0009.42,0004.10
2022-05-08 23:07:00,,0807.4,5.00,0.00,29.6,28.2,00.0,38.5,31.4,15.8,0000.0,0029.85,0009.37,0004.11
2022-05-08 23:08:00,,0807.5,5.00,0.00,29.7,28.3,00.0,38.6,31.5,16.2,0000.0,0031.65,0009.35,0004.10
2022-05-08 23:09:00,,0807.5,5.01,0.00,29.7,28.5,00.0,38.6,31.5,16.0,0000.0,0032.70,0009.35,0004.09
2022-05-08 23:10:00,,0807.5,5.00,0.00,29.7,28.6,00.0,38.6,31.6,16.8,0000.0,0032.69,0009.26,0004.07
2022-05-08 23:11:00,,0807.6,5.00,0.00,29.8,28.6,00.0,38.6,31.6,16.9,0000.0,0032.58,0009.31,0004.07
2022-05-08 23:12:00,,0807.5,4.99,0.00,29.8,28.7,00.0,38.6,31.6,16.5,0000.0,0031.65,0009.32,0004.07
2022-05-08 23:13:00,,0807.4,5.01,0.00,29.8,28.8,00.0,38.6,31.7,16.8,0000.0,0031.75,0009.34,0004.07
2022-05-08 23:14:00,,0807.5,5.01,0.00,29.8,28.9,00.0,38.6,31.7,16.6,0000.0,0033.66,0009.51,0004.07
2022-05-08 23:15:00,,0807.4,5.00,0.00,29.9,28.9,00.0,38.7,31.7,16.3,0000.0,0033.46,0009.51,0004.08
2022-05-08 23:16:00,,0807.4,5.00,0.00,29.9,29.0,00.0,38.7,31.8,16.1,0000.0,0032.77,0009.54,0004.08
2022-05-08 23:17:00,,0807.4,4.99,0.00,29.9,29.1,00.0,38.7,31.8,16.0,0000.0,0032.13,0009.51,0004.08
2022-05-08 23:18:00,,0807.4,5.00,0.00,30.0,29.0,00.0,38.7,31.8,16.0,0000.0,0030.99,0009.55,0004.07
2022-05-08 23:19:00,,0807.3,5.00,0.00,29.9,27.5,00.0,38.7,31.4,16.5,0000.0,0029.49,0009.62,0004.08
2022-05-08 23:20:00,,0807.3,4.99,0.00,29.7,25.4,00.0,38.7,31.0,16.0,0000.0,0030.22,0009.67,0004.08
2022-05-08 23:21:00,,0807.3,5.00,0.00,29.6,25.3,00.0,38.7,30.9,16.2,0000.0,0030.88,0009.59,0004.07
2022-05-08 23:22:00,,0807.3,5.01,0.00,29.6,25.8,00.0,38.6,31.0,16.5,0000.0,0031.06,0009.46,0004.05
2022-05-08 23:23:00,,0807.3,5.00,0.00,29.5,26.3,00.0,38.6,31.1,16.2,0000.0,0031.01,0009.41,0004.03
2022-05-08 23:24:00,,0807.3,4.99,0.00,29.5,26.8,00.0,38.5,31.2,16.5,0000.0,0031.00,0009.43,0004.05
2022-05-08 23:25:00,,0807.3,5.01,0.00,29.5,27.2,00.0,38.5,31.2,16.8,0000.0,0029.32,0009.44,0004.06
2022-05-08 23:26:00,,0807.2,4.99,0.00,29.5,27.5,00.0,38.5,31.3,16.9,0000.0,0029.57,0009.45,0004.04
2022-05-08 23:27:00,,0807.2,5.00,0.00,29.6,27.8,00.0,38.5,31.4,16.6,0000.0,0029.72,0009.47,0004.02
2022-05-08 23:28:00,,0807.1,5.00,0.00,29.6,28.0,00.0,38.5,31.4,16.6,0000.0,0029.32,0009.47,0004.00
2022-05-08 23:29:00,,0807.1,5.00,0.00,29.6,28.2,00.0,38.5,31.4,16.5,0000.0,0029.84,0009.46,0003.99
2022-05-08 23:30:00,,0807.1,4.99,0.00,29.7,28.4,00.0,38.5,31.5,16.6,0000.0,0029.80,0009.32,0003.97
2022-05-08 23:31:00,,0807.1,4.98,0.00,29.7,28.5,00.0,38.5,31.5,16.6,0000.0,0028.51,0009.25,0003.97
2022-05-08 23:32:00,,0807.1,4.99,0.00,29.7,28.6,00.0,38.6,31.6,16.6,0000.0,0028.77,0009.40,0003.98
2022-05-08 23:33:00,,0807.1,5.00,0.00,29.8,28.7,00.0,38.6,31.6,16.4,0000.0,0029.30,0009.49,0003.98
2022-05-08 23:34:00,,0807.1,4.99,0.00,29.8,28.8,00.0,38.6,31.7,16.1,0000.0,0028.95,0009.49,0003.97
2022-05-08 23:35:00,,0807.2,5.00,0.00,29.8,28.8,00.0,38.6,31.7,16.0,0000.0,0028.72,0009.36,0003.95
2022-05-08 23:36:00,,0807.2,5.01,0.00,29.8,28.9,00.0,38.6,31.7,16.5,0000.0,0029.27,0009.30,0003.94
2022-05-08 23:37:00,,0807.3,5.02,0.00,29.9,28.9,00.0,38.7,31.7,16.2,0000.2,0029.39,0009.38,0003.96
2022-05-08 23:38:00,,0807.3,5.00,0.00,29.9,29.0,00.0,38.7,31.8,15.8,0001.4,0030.00,0009.46,0003.97
2022-05-08 23:39:00,,0807.3,5.00,0.00,29.9,29.1,00.0,38.7,31.8,15.8,0001.2,0030.56,0009.53,0003.99
2022-05-08 23:40:00,,0807.4,5.01,0.00,30.0,29.0,00.0,38.7,31.8,15.9,0000.5,0030.19,0009.57,0004.01
2022-05-08 23:41:00,,0807.3,5.01,0.00,29.9,27.1,00.0,38.7,31.4,15.7,0003.7,0030.28,0009.78,0004.03
2022-05-08 23:42:00,,0807.3,4.99,0.00,29.7,25.2,00.0,38.7,31.0,16.3,0003.6,0029.79,0009.84,0004.04
2022-05-08 23:43:00,,0807.2,5.00,0.00,29.6,25.3,00.0,38.7,30.9,16.2,0003.2,0029.55,0009.88,0004.05
2022-05-08 23:44:00,,0807.2,5.01,0.00,29.5,25.8,00.0,38.6,31.0,16.4,0003.0,0028.36,0009.85,0004.05
2022-05-08 23:45:00,,0807.1,5.00,0.00,29.5,26.3,00.0,38.5,31.1,16.6,0003.3,0028.51,0009.81,0004.07
2022-05-08 23:46:00,,0807.1,4.99,0.00,29.5,26.8,00.0,38.5,31.2,16.8,0001.6,0029.28,0009.92,0004.06
2022-05-08 23:47:00,,0807.1,5.01,0.00,29.5,27.2,00.0,38.5,31.3,16.7,0001.9,0028.82,0009.93,0004.07
2022-05-08 23:48:00,,0807.1,4.99,0.00,29.5,27.6,00.0,38.5,31.3,16.6,0000.9,0029.31,0009.96,0004.07
2022-05-08 23:49:00,,0807.1,5.00,0.00,29.6,27.8,00.0,38.5,31.4,16.9,-000.1,0028.78,0009.93,0004.07
2022-05-08 23:50:00,,0807.1,5.00,0.00,29.6,28.0,00.0,38.5,31.4,16.9,-001.1,0029.90,0009.88,0004.06
2022-05-08 23:51:00,,0807.1,5.00,0.00,29.6,28.2,00.0,38.5,31.5,16.9,-001.1,0029.88,0009.82,0004.05
2022-05-08 23:52:00,,0807.1,5.00,0.00,29.7,28.4,00.0,38.5,31.5,16.6,-002.0,0029.54,0009.70,0004.04
2022-05-08 23:53:00,,0807.1,5.00,0.00,29.7,28.5,00.0,38.5,31.5,16.6,-000.9,0029.60,0009.56,0004.02
2022-05-08 23:54:00,,0807.1,5.01,0.00,29.7,28.6,00.0,38.6,31.6,17.0,-000.1,0029.13,0009.54,0004.00
2022-05-08 23:55:00,,0807.1,5.00,0.00,29.8,28.7,00.0,38.6,31.6,17.1,0000.0,0029.81,0009.64,0004.00
2022-05-08 23:56:00,,0807.1,5.00,0.00,29.8,28.8,00.0,38.6,31.7,17.5,0000.0,0030.17,0009.72,0004.01
2022-05-08 23:57:00,,0807.0,5.00,0.00,29.8,28.8,00.0,38.6,31.7,17.0,0000.0,0030.41,0009.71,0004.02
2022-05-08 23:58:00,,0807.0,4.99,0.00,29.9,28.9,00.0,38.6,31.7,17.1,0000.0,0030.97,0009.70,0004.02
2022-05-08 23:59:00,,0807.0,5.00,0.00,29.9,28.9,00.0,38.7,31.8,17.2,0000.0,0031.38,0009.68,0004.02
